This demonstration page uses our WeatherBlox Daily Observations layout. Learn more.

Left ArrowRight Arrow

44.8408, -93.29828

Hourly Observations for March 4, 2015

Temp ( °F °C ) Dew Point ( °F °C ) Humidity (%) Winds ( mph kmh ) Pressure ( in mb ) Visibility ( mi km ) Precip ( " mm )
12:53 am 00:53 Partly Cloudy 5 -15 -5 -20.6 63 63 W 13 20 30.10 1019 10 16 0.00 0.00
1:53 am 01:53 Mostly Clear 3 -16.1 -7 -21.7 62 62 W 9 15 30.13 1020 10 16 0.00 0.00
2:53 am 02:53 Mostly Clear 2 -16.7 -7 -21.7 65 65 W 8 13 30.15 1021 10 16 0.00 0.00
3:53 am 03:53 Clear 1 -17.2 -7 -21.7 68 68 W 12 19 30.15 1021 10 16 0.00 0.00
4:53 am 04:53 Clear 0 -17.8 -8 -22.2 69 69 W 9 15 30.17 1022 10 16 0.00 0.00
5:53 am 05:53 Clear 0 -17.8 -9 -22.8 65 65 W 9 15 30.21 1023 10 16 0.00 0.00
6:53 am 06:53 Mostly Sunny -1 -18.3 -9 -22.8 68 68 W 8 13 30.22 1023 10 16 0.00 0.00
7:53 am 07:53 Mostly Sunny 1 -17.2 -8 -22.2 65 65 W 9 15 30.25 1024 10 16 0.00 0.00
8:53 am 08:53 Mostly Cloudy 3 -16.1 -8 -22.2 60 60 WNW 10 17 30.29 1026 10 16 0.00 0.00
9:53 am 09:53 Mostly Cloudy 5 -15 -8 -22.2 54 54 W 14 22 30.29 1026 10 16 0.00 0.00
10:53 am 10:53 Mostly Sunny 8 -13.3 -6 -21.1 52 52 W 12 19 30.30 1026 10 16 0.00 0.00
11:53 am 11:53 Mostly Cloudy 8 -13.3 -6 -21.1 52 52 WNW 14 22 30.31 1026 10 16 0.00 0.00
1:53 pm 13:53 Partly Cloudy 12 -11.1 -5 -20.6 46 46 WNW 16 26 30.28 1026 10 16 0.00 0.00
2:53 pm 14:53 Partly Cloudy 11 -11.7 -6 -21.1 46 46 NW 20 31 30.30 1026 10 16 0.00 0.00
3:53 pm 15:53 Mostly Sunny 9 -12.8 -8 -22.2 46 46 NW 22 35 30.32 1027 10 16 0.00 0.00
4:53 pm 16:53 Mostly Cloudy 9 -13 -8 -22 47 47 WNW 21 33 30.36 1028 10 16 0.00 0.00
5:53 pm 17:53 Mostly Sunny 5 -15 -8 -22.2 54 54 WNW 13 20 30.37 1028 10 16 0.00 0.00
6:53 pm 18:53 Mostly Clear 3 -16.1 -10 -23.3 54 54 WNW 15 24 30.40 1030 10 16 0.00 0.00
7:53 pm 19:53 Mostly Clear 2 -16.7 -11 -23.9 54 54 NW 12 19 30.42 1030 10 16 0.00 0.00
8:53 pm 20:53 Clear 1 -17.2 -13 -25 51 51 NW 9 15 30.46 1032 10 16 0.00 0.00
9:53 pm 21:53 Clear 1 -17.2 -12 -24.4 54 54 W 7 11 30.51 1033 10 16 0.00 0.00
10:53 pm 22:53 Clear 0 -17.8 -12 -24.4 57 57 W 6 9 30.51 1033 10 16 0.00 0.00
11:53 pm 23:53 Clear -2 -18.9 -12 -24.4 62 62 WNW 8 13 30.50 1033 10 16 0.00 0.00

Powered by AerisWeather